EHI
0 0 1 2 2 1 0 0 0 0 0 0 0 0 0 0 0 0 0 0 0 0 0 0 0 0 0 0 0 0 0 0 0 0 0 0 0 0
0 0 0 1 1 0 0 0 0 0 0 0 0 0 0 0 0 0 0 0 0 0 0 0 0 0 0 0 0 0 0 0 0 0 0 0 0 0
0 0 0 0 0 0 0 0 0 0 0 0 0 0 0 0 0 0 0 0 0 0 0 0 0 0 0 0 0 0 0 0 0 0 0 0 0 0
0 0 0 0 0 0 0 0 0 0 0 0 0 0 0 0 0 0 0 0 0 0 0 0 0 0 0 0 0 0 0 0 0 0 0 0 0 0
0 0 0 0 0 0 0 0 0 0 0 0 0 0 0 0 0 0 0 0 0 0 0 0 0 0 0 0 0 0 0 0 0 0 0 0 0 0
0 0 0 0 0 0 0 0 0 0 0 0 0 0 0 0 0 0 0 0 0 0 0 0 0 0 0 0 0 0 0 0 0 0 0 0 0 0
0 0 0 0 0 0 0 0 0 0 0 0 0 0 0 0 0 0 0 0 0 0 0 0 0 0 0 0 0 0 0 0 0 0 0 0 0 0
0 0 0 0 0 0 0 0 0 0 0 0 0 0 0 0 0 0 0 0 0 0 0 0 0 0 0 0 0 0 0 0 0 0 0 0 0 0
0 0 0 0 0 0 0 0 0 0 0 0 0 0 0 0 0 0 0 0 0 0 0 0 0 0 0 0 0 0 0 0 0 0 0 0 0 0
0 0 0 0 0 0 0 0 0 0 0 0 0 0 0 0 0 0 0 0 0 0 0 0 0 0 0 0 0 0 0 0 0 0 0 0 0 0
0 0 0 0 0 0 0 0 0 0 0 0 0 0 0 0 0 0 0 0 0 0 0 0 0 0 0 0 0 0 0 0 0 0 0 0 0 0
0 0 0 0 0 0 0 0 0 0 0 0 0 0 0 0 0 0 0 0 0 0 0 0 0 0 0 0 0 0 0 0 0 0 0 0 0 0
0 0 0 0 0 0 0 0 0 0 0 0 0 0 0 0 0 0 0 0 0 0 0 0 0 0 0 0 0 0 0 0 0 0 0 0 0 0
0 0 0 0 0 0 0 0 0 0 0 0 0 0 0 0 0 0 1 1 1 1 0 0 0 0 0 0 0 0 0 0 0 0 0 0 0 0
0 0 0 0 0 0 0 0 0 0 0 0 0 0 0 0 0 0 1 2 2 1 0 0 0 0 0 0 0 0 0 0 0 0 0 0 0 0
0 0 0 0 0 0 0 0 0 0 0 0 0 0 0 0 0 0 0 1 1 1 0 0 0 0 0 0 0 0 0 0 0 0 0 0 0 0
0 0 0 0 0 0 0 0 0 0 0 0 0 0 0 0 0 0 0 0 0 0 0 0 0 0 0 0 0 0 0 0 0 0 0 0 0 0
0 0 0 0 0 0 0 0 0 0 0 0 0 0 0 0 0 0 0 0 0 0 0 0 0 0 0 0 0 0 0 0 0 0 0 0 0 0
0 0 0 0 0 0 0 0 0 0 0 0 0 0 0 0 0 0 0 0 0 0 0 0 0 0 0 0 0 0 0 0 0 0 0 0 0 0
0 0 0 0 0 0 0 0 0 0 0 0 0 0 0 0 0 0 0 0 0 0 0 0 0 0 0 0 0 0 0 0 0 0 0 0 0 0
0 0 0 0 0 0 0 0 0 0 0 0 0 0 0 0 0 0 0 0 0 0 0 0 0 0 0 0 0 0 0 0 0 0 0 0 0 0
0 0 0 0 0 0 0 0 0 0 0 0 0 0 0 0 0 0 0 0 0 0 0 0 0 0 0 0 0 0 0 0 0 0 0 0 0 0
0 0 0 0 0 0 0 0 0 0 0 0 0 0 0 0 0 0 0 0 0 0 0 0 0 0 0 0 0 0 0 0 0 0 0 0 0 0
Wind_Speed
3 3 2 1 1 0 0 1 3 3 2 2 1 2 2 3 4 4 5 10 11 11 11 11 11 10 10 11 10 10 9 8 8 8 7 7 7 6
2 3 3 2 1 0 0 1 1 2 3 2 2 2 2 4 5 4 5 9 9 9 9 9 9 10 10 10 10 9 9 8 8 7 7 6 6 5
4 3 3 2 2 1 1 1 2 3 5 3 2 2 3 3 3 3 3 4 4 7 7 7 7 7 7 7 7 7 6 6 6 5 5 5 5 5
4 4 4 3 3 2 2 2 2 3 5 6 3 2 2 2 2 1 2 4 4 6 6 6 6 6 5 5 5 4 4 4 4 4 4 4 4 5
4 5 5 4 4 3 3 3 2 3 4 6 4 2 1 2 2 1 2 2 3 6 6 5 5 5 5 5 5 4 4 4 4 4 5 5 5 6
4 5 5 5 4 3 3 3 4 4 4 4 4 3 2 2 1 1 2 1 2 4 5 6 6 7 7 6 6 6 7 7 6 6 6 7 7 7
4 5 6 7 7 5 4 3 3 3 3 4 4 3 2 2 2 1 2 1 1 2 2 3 4 4 5 7 8 9 9 9 9 8 8 8 8 9
4 3 4 6 7 7 7 5 4 3 3 3 3 3 3 2 1 2 2 1 1 2 2 3 4 4 5 5 10 13 12 12 11 10 10 10 10 10
4 4 5 6 5 3 3 4 4 4 3 3 4 3 3 2 1 1 1 1 1 2 2 2 3 4 4 6 13 14 14 13 13 12 12 12 12 12
4 4 5 5 6 4 2 3 4 4 4 3 3 3 3 1 1 2 2 2 2 2 2 1 2 2 2 3 11 14 14 14 13 13 13 13 13 13
5 6 5 5 7 7 4 4 4 3 4 5 4 2 2 1 0 1 1 1 1 1 2 1 1 1 1 2 6 13 13 14 14 14 14 14 15 13
3 4 7 6 7 8 4 3 3 2 2 2 1 2 3 3 3 1 1 1 1 1 0 0 1 1 2 2 3 4 7 11 14 15 15 16 14 8
2 3 3 5 6 6 4 2 1 1 1 1 2 2 2 2 2 2 1 1 0 1 1 1 1 1 1 2 2 3 5 5 6 8 13 17 16 11
3 3 2 2 3 4 3 3 3 3 2 2 1 1 1 1 1 2 2 2 3 3 3 1 2 2 2 3 3 3 3 4 4 5 6 10 13 16
2 3 3 4 4 4 5 5 4 3 2 1 1 1 1 1 2 2 3 3 4 5 5 4 3 3 3 3 4 4 3 4 5 5 5 5 5 5
2 3 5 7 5 5 4 3 3 2 2 1 1 1 1 1 2 2 2 2 3 3 4 5 5 5 4 5 4 5 4 4 4 4 4 4 4 5
4 3 3 3 4 4 3 3 3 3 2 2 2 2 2 2 2 2 2 2 3 3 3 3 5 6 7 6 5 6 5 5 4 4 4 5 5 6
3 4 4 4 3 3 2 3 3 2 2 2 2 2 2 2 3 3 3 3 3 3 3 3 3 3 4 6 8 7 5 5 5 5 5 6 7 6
3 5 5 4 3 3 2 2 1 1 1 2 2 2 3 3 3 3 3 3 3 4 4 4 3 4 5 6 6 7 5 5 5 5 5 6 7 6
6 6 5 4 4 3 2 2 1 1 2 2 2 3 3 3 3 3 3 4 4 4 4 4 4 4 5 6 5 5 9 7 6 7 7 6 6 8
6 5 5 4 3 3 2 2 2 2 2 2 2 3 3 3 4 4 4 5 5 4 5 5 5 7 5 4 5 6 6 10 10 7 6 6 7 6
6 5 4 3 3 3 3 3 3 3 3 4 4 4 4 4 4 5 5 5 5 5 6 5 5 4 4 5 7 8 8 7 9 14 14 12 7 6
5 4 3 3 4 4 4 4 4 4 4 4 4 3 3 4 4 4 5 5 5 6 6 6 5 4 5 6 7 7 10 9 6 6 6 12 17 20
Wind_Direction
358 357 337 329 329 290 192 168 157 147 126 115 82 38 60 74 73 81 84 83 84 83 83 85 89 92 95 96 98 101 104 110 116 120 123 123 126 128
4 10 6 357 359 330 176 200 146 130 120 109 108 99 83 97 89 85 92 98 91 92 92 93 95 98 98 99 100 102 104 108 114 117 119 122 133 144
12 14 16 20 14 10 49 92 92 104 116 112 100 103 89 94 92 96 113 110 105 107 108 106 106 107 109 110 110 111 112 115 121 131 142 153 165 180
22 25 22 30 30 25 38 76 91 106 122 127 121 116 111 116 111 123 128 128 125 131 131 127 126 128 129 126 124 124 129 140 151 164 177 189 200 213
35 36 32 35 34 37 48 58 75 97 115 128 133 136 136 141 128 123 114 116 143 144 150 155 158 160 161 162 164 170 180 190 198 203 207 213 222 232
47 49 42 39 40 43 63 69 83 93 109 122 130 134 127 137 127 139 123 177 154 160 163 169 178 188 193 196 197 200 206 210 215 218 224 230 235 241
45 62 65 66 59 52 65 73 90 103 115 123 128 130 135 147 155 185 150 181 203 167 159 180 177 192 204 212 214 215 219 221 223 226 231 236 241 245
37 53 94 75 72 71 74 78 84 105 120 127 131 136 139 146 161 179 155 163 203 195 178 207 189 201 205 204 204 209 216 221 225 229 234 238 242 245
40 33 58 64 55 62 85 99 85 84 102 124 121 132 144 149 146 171 185 207 221 207 188 229 214 212 211 205 192 203 211 219 225 231 236 240 243 247
52 49 61 57 34 18 55 80 79 62 63 89 99 110 118 127 167 206 214 244 240 220 181 225 226 226 214 181 194 203 212 220 227 233 239 243 246 249
62 48 49 54 29 24 49 71 78 80 78 88 96 117 140 168 30 354 289 267 279 253 189 204 251 250 229 210 211 211 217 225 231 236 240 244 247 250
91 78 57 46 31 29 33 49 59 47 69 117 135 200 212 229 237 229 279 299 312 311 318 216 272 277 273 239 207 204 227 237 239 242 243 245 246 245
75 82 57 34 24 14 17 41 56 329 304 266 226 205 201 200 194 194 205 181 289 295 296 329 300 298 276 280 255 222 216 229 229 240 242 244 243 230
36 60 65 22 0 343 346 340 328 322 278 265 234 205 178 170 180 183 201 214 217 229 255 272 275 275 283 284 280 263 244 241 236 237 237 238 239 236
10 355 324 305 302 287 271 283 287 269 264 278 306 290 237 186 198 219 227 230 235 242 239 225 234 255 259 267 276 277 274 263 248 245 244 242 237 231
275 281 276 274 272 277 283 260 243 248 248 253 260 261 250 235 233 227 227 231 236 249 240 226 226 234 252 261 264 273 269 264 265 258 254 258 254 243
327 289 264 245 235 236 239 230 221 219 224 233 234 239 240 244 248 243 243 254 256 258 250 240 231 225 231 243 260 265 268 269 264 263 262 265 264 259
326 287 280 272 263 249 239 231 221 217 218 231 242 249 250 246 250 248 245 250 254 255 255 252 249 254 256 250 233 248 257 262 267 266 263 268 272 265
271 267 267 267 266 261 256 254 246 213 222 247 257 267 270 265 261 258 259 261 263 262 257 253 253 258 272 279 267 233 246 264 269 270 263 260 266 267
245 253 256 253 250 256 255 251 248 233 231 239 245 255 265 269 271 270 265 264 267 272 273 266 257 253 256 270 278 266 245 246 256 261 265 263 262 265
250 244 247 248 247 251 254 246 243 243 248 251 254 257 264 269 272 273 274 276 271 268 270 268 257 253 251 261 272 270 259 242 236 241 255 266 272 272
259 256 255 253 250 247 241 239 239 234 234 238 244 244 248 257 267 270 272 273 267 266 271 269 261 254 252 259 268 273 274 268 251 246 243 236 243 257
250 257 259 253 251 249 249 250 249 244 238 239 244 240 245 252 259 267 272 273 275 278 279 278 273 264 265 266 272 275 278 277 270 263 256 247 245 247